Location: Cormont
(50.5693°N, 1.7416°E)
Time: 19:31:44
(UTC+00:00)

STARLINK-54 - Pass Details

Date: 21 October 2019
Orbit: 548 x 551 km, 53.0° (Epoch: 13 November)

Event Time Altitude Azimuth Distance (km) Brightness Sun altitude
Rises 17:31:50 0° 266° (W) 2,715 9.7 -7.4°
Reaches altitude 10° 17:34:05 10° 270° (W) 1,822 8.0 -7.7°
Maximum altitude 17:38:12 64° 352° (N) 611 3.8 -8.4°
Enters shadow 17:42:03 12° 74° (ENE) 1,717 5.5 -9.0°
